N47TB TFFR-MDPC

Flight info

Callsign N47TB
Flight time N/A
Altitude 6500
Route PPR DCT ANU DCT PJM DCT STT DCT BQN DCT PNA
Aircraft DC3/M-SDF/S

Departure

Time 2026-05-06 18:52
Airport Maryse Condé International Airport (TFFR)

Arrival

Time N/A
Airport Punta Cana International Airport (MDPC)
Time Latitude Longitude Altitude Speed Heading
2026-05-06 18:43 16.26266 -61.52834 39 ft 0 kts 12°
2026-05-06 18:49 16.26270 -61.52832 39 ft 2 kts 14°
2026-05-06 18:49 16.26283 -61.52847 39 ft 6 kts 278°
2026-05-06 18:50 16.26318 -61.52880 39 ft 8 kts 19°
2026-05-06 18:50 16.26409 -61.52860 39 ft 17 kts 13°
2026-05-06 18:50 16.26470 -61.52881 38 ft 11 kts 284°
2026-05-06 18:50 16.26492 -61.53090 39 ft 46 kts 282°
2026-05-06 18:51 16.26587 -61.53541 48 ft 81 kts 278°
2026-05-06 18:51 16.26725 -61.54168 189 ft 94 kts 282°
2026-05-06 18:51 16.26938 -61.54868 297 ft 107 kts 284°
2026-05-06 18:51 16.27079 -61.55383 374 ft 113 kts 283°
2026-05-06 18:52 16.27551 -61.56405 515 ft 123 kts 294°
2026-05-06 18:52 16.27935 -61.57263 590 ft 134 kts 296°
2026-05-06 18:52 16.28371 -61.58131 762 ft 140 kts 299°
2026-05-06 18:52 16.28984 -61.58945 888 ft 146 kts 319°
2026-05-06 18:53 16.29869 -61.59461 1050 ft 147 kts 342°
2026-05-06 18:53 16.30854 -61.59745 1217 ft 147 kts 353°
2026-05-06 18:53 16.31879 -61.59790 1392 ft 144 kts 10°
2026-05-06 18:53 16.32853 -61.59607 1518 ft 144 kts 18°
2026-05-06 18:54 16.33852 -61.59301 1516 ft 148 kts 22°
2026-05-06 18:54 16.34780 -61.58982 1729 ft 137 kts 25°
2026-05-06 18:54 16.35728 -61.58698 1736 ft 145 kts 17°
2026-05-06 18:54 16.36743 -61.58601 1807 ft 147 kts
2026-05-06 18:55 16.37743 -61.58817 1931 ft 150 kts 343°
2026-05-06 18:55 16.38732 -61.59201 2075 ft 151 kts 343°
2026-05-06 18:55 16.39720 -61.59577 2219 ft 151 kts 340°
2026-05-06 18:55 16.40367 -61.59897 2318 ft 152 kts 338°
2026-05-06 18:56 16.41632 -61.60521 2510 ft 151 kts 338°
2026-05-06 18:56 16.42631 -61.60833 2652 ft 148 kts 354°
2026-05-06 18:56 16.43633 -61.61130 2791 ft 151 kts 341°
2026-05-06 18:56 16.44608 -61.61550 2937 ft 150 kts 343°
2026-05-06 18:57 16.45599 -61.61910 3081 ft 149 kts 345°
2026-05-06 18:57 16.46588 -61.62238 3225 ft 149 kts 347°
2026-05-06 18:57 16.47583 -61.62544 3367 ft 148 kts 348°
2026-05-06 18:57 16.48590 -61.62832 3513 ft 150 kts 348°
2026-05-06 18:58 16.49602 -61.63109 3664 ft 150 kts 350°
2026-05-06 18:58 16.50612 -61.63363 3804 ft 147 kts 351°
2026-05-06 18:58 16.51619 -61.63612 3939 ft 147 kts 348°
2026-05-06 18:58 16.52603 -61.63887 4037 ft 147 kts 349°
2026-05-06 18:59 16.53595 -61.64172 4131 ft 146 kts 345°
2026-05-06 18:59 16.54530 -61.64584 4216 ft 146 kts 336°
2026-05-06 18:59 16.55443 -61.65062 4298 ft 145 kts 339°
2026-05-06 18:59 16.56380 -61.65458 4407 ft 145 kts 341°
2026-05-06 19:00 16.57316 -61.65874 4518 ft 145 kts 339°
2026-05-06 19:00 16.58249 -61.66289 4627 ft 145 kts 340°
2026-05-06 19:00 16.59172 -61.66691 4734 ft 144 kts 340°
2026-05-06 19:00 16.60105 -61.67082 4841 ft 144 kts 341°
2026-05-06 19:01 16.61046 -61.67472 4947 ft 144 kts 341°
2026-05-06 19:01 16.61983 -61.67855 5062 ft 143 kts 341°
2026-05-06 19:01 16.62896 -61.68221 5210 ft 140 kts 342°
2026-05-06 19:01 16.63812 -61.68571 5347 ft 138 kts 343°
2026-05-06 19:02 16.64728 -61.68858 5474 ft 136 kts 347°
2026-05-06 19:02 16.65636 -61.69123 5597 ft 136 kts 348°
2026-05-06 19:02 16.66557 -61.69348 5718 ft 135 kts 351°
2026-05-06 19:02 16.67496 -61.69528 5839 ft 134 kts 354°
2026-05-06 19:03 16.68416 -61.69660 5956 ft 134 kts 356°
2026-05-06 19:03 16.69352 -61.69749 6074 ft 133 kts 359°
2026-05-06 19:03 16.70286 -61.69791 6178 ft 134 kts
2026-05-06 19:03 16.71223 -61.69790 6242 ft 137 kts
2026-05-06 19:04 16.72195 -61.69793 6327 ft 139 kts 360°
2026-05-06 19:04 16.73174 -61.69876 6408 ft 140 kts 356°
2026-05-06 19:04 16.74140 -61.70021 6491 ft 142 kts 352°
2026-05-06 19:04 16.75117 -61.70237 6532 ft 146 kts 348°
2026-05-06 19:05 16.76115 -61.70522 6563 ft 149 kts 346°
2026-05-06 19:05 16.77130 -61.70820 6586 ft 152 kts 346°
2026-05-06 19:05 16.78165 -61.71121 6582 ft 153 kts 346°
2026-05-06 19:05 16.79175 -61.71423 6585 ft 150 kts 346°
2026-05-06 19:06 16.80178 -61.71719 6586 ft 150 kts 346°
2026-05-06 19:06 16.81188 -61.72015 6588 ft 150 kts 346°
2026-05-06 19:06 16.82202 -61.72318 6596 ft 150 kts 346°
2026-05-06 19:06 16.83215 -61.72592 6583 ft 150 kts 348°
2026-05-06 19:07 16.84231 -61.72832 6584 ft 150 kts 349°
2026-05-06 19:07 16.85285 -61.73086 6520 ft 155 kts 347°
2026-05-06 19:07 16.86303 -61.73367 6599 ft 148 kts 347°
2026-05-06 19:07 16.87295 -61.73626 6620 ft 148 kts 349°
2026-05-06 19:08 16.88304 -61.73849 6648 ft 146 kts 350°
2026-05-06 19:08 16.89299 -61.74082 6650 ft 147 kts 349°
2026-05-06 19:08 16.90321 -61.74312 6600 ft 152 kts 350°
2026-05-06 19:08 16.91369 -61.74554 6587 ft 153 kts 348°
2026-05-06 19:09 16.92389 -61.74856 6641 ft 150 kts 343°
2026-05-06 19:09 16.93373 -61.75221 6635 ft 151 kts 342°
2026-05-06 19:09 16.94385 -61.75571 6620 ft 153 kts 345°
2026-05-06 19:09 16.95399 -61.75889 6635 ft 152 kts 345°
2026-05-06 19:10 16.96426 -61.76204 6652 ft 151 kts 346°
2026-05-06 19:10 16.97436 -61.76498 6667 ft 151 kts 347°
2026-05-06 19:10 16.98460 -61.76783 6680 ft 151 kts 347°
2026-05-06 19:10 16.99479 -61.77055 6693 ft 150 kts 348°
2026-05-06 19:11 17.00503 -61.77317 6705 ft 150 kts 348°
2026-05-06 19:11 17.01522 -61.77566 6717 ft 150 kts 349°
2026-05-06 19:11 17.02540 -61.77804 6729 ft 150 kts 349°
2026-05-06 19:11 17.03566 -61.78031 6735 ft 150 kts 350°
2026-05-06 19:12 17.04606 -61.78247 6742 ft 150 kts 351°
2026-05-06 19:12 17.05639 -61.78452 6749 ft 150 kts 352°
2026-05-06 19:12 17.06667 -61.78642 6756 ft 150 kts 352°
2026-05-06 19:12 17.07702 -61.78821 6768 ft 150 kts 353°
2026-05-06 19:13 17.08731 -61.78986 6781 ft 150 kts 353°
2026-05-06 19:13 17.09770 -61.79142 6794 ft 150 kts 354°
2026-05-06 19:13 17.10799 -61.79284 6806 ft 149 kts 355°
2026-05-06 19:13 17.11841 -61.79417 6816 ft 149 kts 355°
2026-05-06 19:14 17.12884 -61.79538 6826 ft 149 kts 356°
2026-05-06 19:14 17.13922 -61.79670 6835 ft 150 kts 350°
2026-05-06 19:14 17.14883 -61.80103 6843 ft 152 kts 327°
2026-05-06 19:14 17.15653 -61.80885 6775 ft 157 kts 307°
2026-05-06 19:15 17.16144 -61.81919 6686 ft 159 kts 287°
2026-05-06 19:15 17.16277 -61.83055 6644 ft 157 kts 266°
2026-05-06 19:15 17.16144 -61.84175 6596 ft 156 kts 261°
2026-05-06 19:15 17.16094 -61.85307 6539 ft 156 kts 272°
2026-05-06 19:16 17.16249 -61.86412 6537 ft 152 kts 283°
2026-05-06 19:16 17.16637 -61.87427 6512 ft 150 kts 308°
2026-05-06 19:16 17.17212 -61.88336 6495 ft 148 kts 297°
2026-05-06 19:16 17.17741 -61.89248 6486 ft 146 kts 306°
2026-05-06 19:17 17.18311 -61.90108 6520 ft 142 kts 305°
2026-05-06 19:17 17.18864 -61.90963 6533 ft 141 kts 305°
2026-05-06 19:17 17.19412 -61.91815 6542 ft 140 kts 304°
2026-05-06 19:17 17.19950 -61.92658 6550 ft 140 kts 304°
2026-05-06 19:18 17.20491 -61.93511 6556 ft 139 kts 304°
2026-05-06 19:18 17.21028 -61.94361 6559 ft 139 kts 304°
2026-05-06 19:18 17.21558 -61.95207 6558 ft 138 kts 304°
2026-05-06 19:18 17.22058 -61.96012 6554 ft 137 kts 304°
2026-05-06 19:19 17.22581 -61.96862 6549 ft 138 kts 303°
2026-05-06 19:19 17.23097 -61.97700 6549 ft 139 kts 303°
2026-05-06 19:19 17.23243 -61.97936 6550 ft 139 kts 303°